TimeCDT,TemperatureF,Dew PointF,Humidity,Sea Level PressureIn,VisibilityMPH,Wind Direction,Wind SpeedMPH,Gust SpeedMPH,PrecipitationIn,Events,Conditions,WindDirDegrees,DateUTC
12:53 AM,73.0,68.0,84,30.07,9.0,NNE,3.5,-,N/A,,Overcast,20,2012-09-16 05:53:00
1:53 AM,72.0,68.0,87,30.07,8.0,NNW,4.6,-,N/A,,Overcast,340,2012-09-16 06:53:00
2:53 AM,72.0,68.0,87,30.06,8.0,Calm,Calm,-,N/A,,Overcast,0,2012-09-16 07:53:00
3:53 AM,72.0,68.0,87,30.04,8.0,Calm,Calm,-,N/A,,Overcast,0,2012-09-16 08:53:00
4:53 AM,72.0,69.1,91,30.05,7.0,Calm,Calm,-,N/A,,Overcast,0,2012-09-16 09:53:00
5:53 AM,72.0,68.0,87,30.05,8.0,Calm,Calm,-,N/A,,Overcast,0,2012-09-16 10:53:00
7:53 AM,72.0,69.1,91,30.06,5.0,NW,3.5,-,N/A,,Clear,320,2012-09-16 12:53:00
8:53 AM,75.9,68.0,76,30.07,8.0,Calm,Calm,-,N/A,,Mostly Cloudy,0,2012-09-16 13:53:00
9:53 AM,78.1,68.0,71,30.06,10.0,Calm,Calm,-,N/A,,Mostly Cloudy,0,2012-09-16 14:53:00
10:53 AM,82.0,68.0,62,30.06,10.0,Calm,Calm,-,N/A,,Clear,0,2012-09-16 15:53:00
11:53 AM,84.9,66.9,55,30.05,10.0,SSW,4.6,-,N/A,,Scattered Clouds,210,2012-09-16 16:53:00
12:53 PM,86.0,64.9,49,30.03,10.0,Calm,Calm,-,N/A,,Overcast,0,2012-09-16 17:53:00
1:53 PM,86.0,64.9,49,30.01,10.0,Variable,4.6,-,N/A,,Overcast,0,2012-09-16 18:53:00
2:53 PM,86.0,63.0,46,29.99,10.0,WSW,3.5,-,N/A,,Overcast,250,2012-09-16 19:53:00
3:53 PM,87.1,62.1,43,29.96,10.0,Calm,Calm,-,N/A,,Scattered Clouds,0,2012-09-16 20:53:00
4:53 PM,86.0,66.0,51,29.96,10.0,Variable,5.8,-,N/A,,Mostly Cloudy,0,2012-09-16 21:53:00
5:44 PM,77.0,69.8,78,29.96,1.8,NNE,15.0,-,0.14,Rain,Rain,20,2012-09-16 22:44:00
5:53 PM,73.9,70.0,87,29.98,0.8,North,9.2,-,0.21,Rain,Heavy Rain,350,2012-09-16 22:53:00
5:57 PM,73.4,69.8,88,29.96,2.0,North,6.9,-,0.00,Rain,Light Rain,10,2012-09-16 22:57:00
6:04 PM,73.4,69.8,88,29.96,10.0,NNE,11.5,-,0.00,,Overcast,30,2012-09-16 23:04:00
6:53 PM,73.0,71.1,93,29.98,9.0,North,12.7,-,0.00,,Overcast,10,2012-09-16 23:53:00
7:53 PM,73.0,71.1,93,29.98,7.0,NNE,5.8,-,N/A,,Overcast,30,2012-09-17 00:53:00
8:53 PM,73.0,71.1,93,29.99,6.0,North,4.6,-,N/A,,Mostly Cloudy,350,2012-09-17 01:53:00
9:53 PM,73.9,72.0,93,29.99,7.0,NNE,3.5,-,0.00,,Mostly Cloudy,20,2012-09-17 02:53:00
10:53 PM,73.9,72.0,93,29.99,6.0,North,4.6,-,0.00,,Mostly Cloudy,10,2012-09-17 03:53:00
11:53 PM,73.0,71.1,93,29.97,7.0,North,5.8,-,0.00,,Overcast,360,2012-09-17 04:53:00